Watford City, ND

2:03 PM CDT on September 26, 2017 (GMT -0500)
Watford City

Weather History for KS25 - February, 2013

Change the Weather History Date:

Friday, February 15, 2013

  Actual Average (KISN) Record (KISN)
Temperature  
Mean Temperature 16 °F -  
Max Temperature 28 °F 25 °F 50 °F (1998)
Min Temperature 5 °F 3 °F -47 °F (1936)
Degree Days  
Heating Degree Days 48    
Moisture  
Dew Point 14 °F    
Average Humidity 81    
Maximum Humidity 93    
Minimum Humidity 68    
Precipitation  
Precipitation 0.09 in - - ()
Sea Level Pressure  
Sea Level Pressure 30.22 in    
Wind  
Wind Speed 7 mph (WSW)    
Max Wind Speed 13 mph    
Max Gust Speed 17 mph    
Visibility 10 miles    
Events Snow    
Averages and records for this station are not official NWS values.
T = Trace of Precipitation, MM = Missing Value Source: NWS Daily Summary

Daily Weather History Graph

Daily Weather History Graph

Search for Another Location

Airport or City:

Trip Planner

Search our weather history database for the weather conditions in past years. The results will help you decide how hot, cold, wet, or windy it might be!

Date:

Astronomy

Feb. 15, 2013 Rise Set
Actual Time 7:58 AM CST 6:16 PM CST
Civil Twilight 7:26 AM CST 6:48 PM CST
Nautical Twilight 6:50 AM CST 7:24 PM CST
Astronomical Twilight 6:14 AM CST 8:00 PM CST
Moon 10:07 AM CST (2/15) No Moon Set
Length of Visible Light 11h 21m
Length of Day
10h 18m
Waxing Crescent, 30% of the Moon is Illuminated
Feb 15
Waxing Crescent
Feb 17
First Quarter
Feb 25
Full
Mar 4
Last Quarter
Mar 11
New

Hourly Weather History & Observations

Time (CST) Temp. Windchill Dew Point Humidity Pressure Visibility Wind Dir Wind Speed Gust Speed Precip Events Conditions
12:15 AM 21.2 °F 12.6 °F 15.8 °F 80% 30.24 in 10.0 mi WNW 6.9 mph - N/A   Overcast
12:35 AM 19.4 °F 9.5 °F 15.8 °F 86% 30.24 in 10.0 mi WNW 8.1 mph - N/A   Mostly Cloudy
12:55 AM 19.4 °F 8.6 °F 14.0 °F 80% 30.25 in 10.0 mi WNW 9.2 mph - N/A   Scattered Clouds
1:15 AM 19.4 °F 7.9 °F 14.0 °F 80% 30.25 in 10.0 mi WNW 10.4 mph - N/A Snow Light Snow
1:35 AM 19.4 °F 7.2 °F 14.0 °F 80% 30.25 in 10.0 mi WNW 11.5 mph - N/A   Overcast
1:55 AM 17.6 °F 4.3 °F 12.2 °F 79% 30.25 in 10.0 mi West 12.7 mph - N/A   Mostly Cloudy
2:15 AM 17.6 °F 5.0 °F 10.4 °F 73% 30.25 in 10.0 mi West 11.5 mph - N/A   Scattered Clouds
2:35 AM 17.6 °F 5.0 °F 12.2 °F 79% 30.26 in 10.0 mi WNW 11.5 mph 17.3 mph N/A   Mostly Cloudy
2:55 AM 15.8 °F 2.7 °F 12.2 °F 86% 30.26 in 10.0 mi WNW 11.5 mph - N/A   Overcast
3:15 AM 15.8 °F 2.7 °F 10.4 °F 79% 30.26 in 10.0 mi WNW 11.5 mph - N/A Snow Light Snow
3:35 AM 15.8 °F 2.7 °F 12.2 °F 86% 30.26 in 10.0 mi WNW 11.5 mph - N/A   Overcast
3:55 AM 15.8 °F 2.1 °F 10.4 °F 79% 30.26 in 10.0 mi WNW 12.7 mph - N/A   Scattered Clouds
4:15 AM 15.8 °F 3.4 °F 10.4 °F 79% 30.26 in 10.0 mi WNW 10.4 mph - N/A   Clear
4:35 AM 15.8 °F 2.7 °F 12.2 °F 86% 30.27 in 10.0 mi NW 11.5 mph - N/A   Mostly Cloudy
4:55 AM 15.8 °F 2.7 °F 12.2 °F 86% 30.27 in 10.0 mi NW 11.5 mph - N/A   Overcast
5:15 AM 15.8 °F 3.4 °F 12.2 °F 86% 30.28 in 10.0 mi NW 10.4 mph - N/A   Overcast
5:35 AM 15.8 °F 3.4 °F 10.4 °F 79% 30.28 in 10.0 mi NW 10.4 mph - N/A   Overcast
5:55 AM 14.0 °F 2.0 °F 10.4 °F 86% 30.30 in 10.0 mi WNW 9.2 mph - N/A   Mostly Cloudy
6:15 AM 14.0 °F 5.1 °F 10.4 °F 86% 30.30 in 10.0 mi NW 5.8 mph - N/A   Overcast
6:35 AM 14.0 °F - 10.4 °F 86% 30.30 in 10.0 mi Calm Calm - N/A   Overcast
6:55 AM 14.0 °F 6.5 °F 8.6 °F 79% 30.31 in 10.0 mi NW 4.6 mph - N/A   Overcast
7:15 AM 10.4 °F 4.0 °F 8.6 °F 92% 30.31 in 10.0 mi North 3.5 mph - N/A   Overcast
7:35 AM 6.8 °F -2.0 °F 5.0 °F 92% 30.32 in 10.0 mi NW 4.6 mph - N/A   Mostly Cloudy
7:55 AM 6.8 °F -0.1 °F 5.0 °F 92% 30.32 in 10.0 mi NNW 3.5 mph - N/A   Scattered Clouds
8:15 AM 6.8 °F -3.5 °F 5.0 °F 92% 30.32 in 10.0 mi SW 5.8 mph - N/A   Partly Cloudy
8:35 AM 5.0 °F -2.1 °F 1.4 °F 85% 30.33 in 10.0 mi SSW 3.5 mph - N/A   Clear
8:55 AM 5.0 °F -2.1 °F 1.4 °F 85% 30.33 in 10.0 mi SSW 3.5 mph - N/A   Clear
9:15 AM 5.0 °F - 1.4 °F 85% 30.33 in 10.0 mi Calm Calm - N/A   Clear
9:35 AM 6.8 °F - 5.0 °F 92% 30.34 in 10.0 mi Calm Calm - N/A   Clear
9:55 AM 8.6 °F 2.0 °F 5.0 °F 85% 30.34 in 10.0 mi WSW 3.5 mph - N/A   Clear
10:15 AM 8.6 °F - 6.8 °F 92% 30.34 in 10.0 mi Calm Calm - N/A   Clear
10:35 AM 10.4 °F - 5.0 °F 79% 30.34 in 10.0 mi Calm Calm - N/A   Clear
10:55 AM 10.4 °F 4.0 °F 6.8 °F 85% 30.34 in 10.0 mi WSW 3.5 mph - N/A   Clear
11:15 AM 10.4 °F - 6.8 °F 85% 30.33 in 10.0 mi Calm Calm - N/A   Clear
11:55 AM 14.0 °F 8.2 °F 8.6 °F 79% 30.33 in 10.0 mi SW 3.5 mph - N/A   Clear
12:15 PM 15.8 °F 10.2 °F 10.4 °F 79% 30.32 in 10.0 mi WSW 3.5 mph - N/A   Clear
12:35 PM 15.8 °F - 10.4 °F 79% 30.31 in 10.0 mi Calm Calm - N/A   Clear
1:15 PM 19.4 °F 12.8 °F 12.2 °F 74% 30.30 in 10.0 mi SW 4.6 mph - N/A   Clear
1:35 PM 19.4 °F 11.5 °F 14.0 °F 80% 30.29 in 10.0 mi SW 5.8 mph - N/A   Clear
1:55 PM 19.4 °F 11.5 °F 14.0 °F 80% 30.28 in 10.0 mi SW 5.8 mph - N/A   Clear
2:15 PM 21.2 °F 14.9 °F 14.0 °F 74% 30.27 in 10.0 mi SW 4.6 mph - N/A   Clear
2:35 PM 23.0 °F 17.0 °F 14.0 °F 68% 30.26 in 10.0 mi SSW 4.6 mph - N/A   Clear
2:55 PM 23.0 °F 15.8 °F 15.8 °F 74% 30.25 in 10.0 mi SW 5.8 mph - N/A   Clear
3:15 PM 24.8 °F 19.1 °F 15.8 °F 69% 30.24 in 10.0 mi SW 4.6 mph - N/A   Clear
3:35 PM 24.8 °F 17.9 °F 15.8 °F 69% 30.24 in 10.0 mi SW 5.8 mph - N/A   Clear
3:55 PM 24.8 °F 19.1 °F 15.8 °F 69% 30.24 in 10.0 mi SW 4.6 mph - N/A   Clear
4:15 PM 24.8 °F 17.9 °F 17.6 °F 74% 30.22 in 10.0 mi SSW 5.8 mph - N/A   Clear
4:35 PM 24.8 °F 17.9 °F 17.6 °F 74% 30.20 in 10.0 mi SSW 5.8 mph - N/A   Clear
4:55 PM 24.8 °F 17.9 °F 15.8 °F 69% 30.20 in 10.0 mi SW 5.8 mph - N/A   Clear
5:15 PM 24.8 °F 19.1 °F 17.6 °F 74% 30.19 in 10.0 mi SSW 4.6 mph - N/A   Clear
5:35 PM 24.8 °F 20.5 °F 17.6 °F 74% 30.18 in 10.0 mi South 3.5 mph - N/A   Clear
5:55 PM 24.8 °F 19.1 °F 17.6 °F 74% 30.17 in 10.0 mi SSE 4.6 mph - N/A   Clear
6:15 PM 24.8 °F 17.9 °F 17.6 °F 74% 30.16 in 10.0 mi SSE 5.8 mph - N/A   Clear
6:35 PM 23.0 °F 13.9 °F 17.6 °F 80% 30.14 in 10.0 mi SE 8.1 mph - N/A   Clear
6:55 PM 23.0 °F 17.0 °F 17.6 °F 80% 30.13 in 10.0 mi South 4.6 mph - N/A   Clear
7:15 PM 24.8 °F 16.9 °F 17.6 °F 74% 30.12 in 10.0 mi South 6.9 mph - N/A   Clear
7:35 PM 24.8 °F 16.1 °F 17.6 °F 74% 30.11 in 10.0 mi South 8.1 mph - N/A   Mostly Cloudy
7:55 PM 24.8 °F 15.3 °F 17.6 °F 74% 30.09 in 10.0 mi South 9.2 mph - N/A   Mostly Cloudy
8:15 PM 26.6 °F 16.8 °F 17.6 °F 69% 30.07 in 10.0 mi South 10.4 mph - N/A   Scattered Clouds
8:35 PM 24.8 °F 16.9 °F 17.6 °F 74% 30.07 in 10.0 mi SSW 6.9 mph - N/A   Clear
8:55 PM 24.8 °F 16.9 °F 19.4 °F 80% 30.06 in 10.0 mi SW 6.9 mph - N/A   Mostly Cloudy
9:15 PM 26.6 °F 22.6 °F 19.4 °F 74% 30.04 in 10.0 mi SW 3.5 mph - N/A   Overcast
9:35 PM 26.6 °F - 19.4 °F 74% 30.03 in 10.0 mi Calm Calm - N/A   Overcast
9:55 PM 26.6 °F 22.6 °F 21.2 °F 80% 30.02 in 10.0 mi SW 3.5 mph - N/A   Overcast
10:15 PM 28.4 °F 21.2 °F 23.0 °F 80% 30.01 in 4.0 mi SSW 6.9 mph - N/A Snow Light Snow
10:35 PM 28.4 °F 22.2 °F 24.8 °F 86% 30.01 in 4.0 mi South 5.8 mph - 0.03 in Snow Light Snow
10:55 PM 26.6 °F 20.0 °F 24.8 °F 93% 29.99 in 3.0 mi SSE 5.8 mph - 0.08 in Snow Light Snow
11:15 PM 26.6 °F 19.1 °F 24.8 °F 93% 29.97 in 4.0 mi SSE 6.9 mph - N/A Snow Light Snow
11:35 PM 26.6 °F 17.5 °F 24.8 °F 93% 29.95 in 5.0 mi SE 9.2 mph - 0.01 in Snow Light Snow
11:55 PM 26.6 °F 16.2 °F 24.8 °F 93% 29.93 in 10.0 mi SE 11.5 mph - 0.01 in Snow Light Snow